Theta_e
313 312 313 317 321 322 324 322 317 321 321 320 322 321 319 323 325 322 322 322 323 320 324 338 345 339 334 347 354 352 352 360 358 342 341 348 347 348 347 345 348 347 348 348 346 346 345 343 341 338 337 336 332 328 329 331 332 332 330 329 329 328 330 328 326 326 326 328 329 333 336 338 337 334 336 338 337 337 337 337 336 336 335 335 336 336 336 337 338 339 339 339 340 340 340 339 339
312 314 319 322 322 323 327 323 320 322 321 319 319 322 322 324 324 322 324 322 323 320 330 347 349 348 346 350 354 352 354 353 351 348 348 347 347 348 345 346 347 346 348 347 346 345 344 343 341 339 337 336 332 328 330 331 332 332 331 330 329 331 332 330 329 330 331 333 335 337 337 339 339 336 337 338 337 337 337 337 337 336 335 334 335 335 336 337 338 338 338 338 339 339 339 339 338
311 316 323 324 321 325 328 325 326 323 319 318 317 322 321 322 324 323 324 321 322 320 327 346 353 349 350 360 358 350 350 350 348 348 348 347 349 348 346 347 346 347 347 347 347 344 343 342 341 339 338 337 331 329 332 331 333 334 333 330 330 332 331 333 336 336 335 336 337 338 338 339 340 336 335 337 337 337 336 336 337 337 336 335 334 335 337 337 337 338 338 338 338 338 338 338 338
311 317 322 325 324 326 331 329 331 326 320 320 317 321 322 322 325 321 320 321 319 316 324 347 360 350 353 365 357 354 353 350 349 347 348 347 348 348 348 347 347 348 347 348 347 343 342 342 341 339 339 337 332 331 333 332 336 336 334 332 331 333 334 337 339 339 337 336 337 337 339 339 340 336 333 337 337 337 337 337 337 337 336 335 334 334 336 337 337 337 337 338 337 337 337 337 337
310 316 320 325 327 326 329 328 328 324 321 322 319 323 324 321 322 319 318 319 317 315 329 352 363 351 352 355 351 359 355 351 349 346 348 347 348 348 348 347 347 348 347 348 346 343 342 343 340 338 340 337 334 333 332 334 337 338 338 336 334 335 337 339 339 340 337 336 337 338 339 339 339 335 334 338 337 337 337 337 337 336 335 333 332 333 335 336 337 337 337 337 336 336 336 336 334
311 317 320 322 323 323 325 325 325 323 323 322 321 324 325 321 319 318 317 318 319 315 331 354 359 355 355 351 351 355 350 352 350 346 347 347 348 347 347 347 347 348 347 348 346 343 343 344 341 339 341 339 336 333 333 336 337 339 341 339 338 337 336 338 339 340 337 336 339 339 338 339 339 334 335 338 337 337 337 336 336 334 333 331 328 328 331 333 335 336 335 335 335 334 334 333 331
313 319 321 322 321 322 327 329 328 326 325 321 321 323 322 321 319 318 317 318 320 323 343 356 352 357 356 350 354 351 348 351 348 347 347 347 347 346 347 348 348 348 347 347 345 343 344 343 341 340 340 339 337 334 335 337 337 340 341 340 340 338 335 337 339 340 337 336 338 340 338 338 338 335 336 339 337 335 335 335 335 334 333 331 326 323 326 329 332 333 333 333 333 333 332 331 329
316 320 322 326 325 322 326 327 326 326 325 321 320 321 321 322 320 319 318 317 317 328 349 352 349 365 357 351 359 350 347 349 346 347 347 347 347 347 348 347 347 347 347 346 344 344 345 343 341 340 339 340 337 335 336 337 339 339 341 340 339 337 335 337 339 340 337 335 337 339 338 337 338 336 335 337 336 335 336 336 335 336 335 333 326 320 323 326 329 331 331 332 332 331 330 329 329
317 318 320 323 324 322 323 322 321 322 322 321 319 320 323 321 320 319 319 317 316 331 348 348 352 368 358 353 357 347 346 347 346 346 345 346 346 346 346 345 345 345 347 345 344 345 345 343 341 339 338 340 338 335 336 338 338 338 340 339 337 334 335 338 339 338 335 335 336 337 337 337 338 335 334 336 336 336 338 337 335 336 335 333 327 319 320 324 328 330 330 330 330 329 328 329 330
320 318 320 323 324 322 323 321 320 320 319 320 319 319 320 318 319 317 318 315 319 342 349 347 355 362 357 354 354 347 345 345 344 345 344 345 344 343 342 342 341 342 346 345 346 346 345 344 341 339 338 339 338 336 336 337 337 338 339 337 335 334 336 338 337 335 334 335 335 335 336 337 337 334 336 337 337 337 337 336 335 335 333 331 328 322 319 321 326 329 329 329 328 327 328 330 332
325 320 321 325 325 323 323 323 323 323 320 319 318 317 318 316 317 314 319 315 323 353 350 350 358 353 354 355 352 347 344 344 343 344 344 343 340 339 340 342 342 344 347 346 347 347 345 344 342 340 338 339 338 336 336 336 336 337 337 336 336 335 337 336 334 335 334 335 335 334 335 336 336 334 337 337 337 337 337 336 335 334 331 330 329 324 317 319 325 327 327 326 327 328 330 332 333
327 321 323 328 327 325 324 324 323 323 319 318 317 317 317 315 316 315 320 316 323 348 348 353 358 351 356 355 350 347 344 344 343 343 343 341 339 339 340 343 345 346 347 347 347 346 345 345 344 342 340 339 338 337 336 335 335 334 334 335 336 335 334 333 334 335 334 334 334 333 334 336 336 336 337 337 337 337 337 336 334 332 330 330 329 325 317 317 323 325 325 325 328 330 332 333 334
328 324 325 326 325 325 322 321 321 322 320 319 318 317 317 316 319 317 320 322 328 345 346 349 353 353 357 354 351 347 344 344 343 344 343 341 340 340 340 342 346 346 346 346 346 345 345 345 344 344 342 340 338 337 336 335 335 332 333 336 337 334 331 333 334 334 333 333 332 332 334 337 337 337 337 337 337 338 337 335 334 332 330 330 329 325 317 315 321 323 324 327 331 332 332 333 334
325 324 326 324 322 322 319 318 319 319 319 319 318 317 319 318 319 318 325 338 344 350 349 346 348 355 356 353 353 347 344 343 343 345 343 342 340 339 340 342 345 346 346 345 344 345 344 345 345 345 344 343 340 338 336 337 336 332 334 337 337 334 331 334 335 333 333 333 333 332 334 335 335 337 338 337 337 338 337 335 333 331 330 330 329 325 318 316 320 322 326 330 332 332 333 333 333
321 322 325 324 320 319 318 319 318 316 316 318 317 317 320 318 318 317 323 338 345 346 347 346 345 352 355 355 354 347 343 342 344 345 343 344 342 341 341 342 344 345 345 344 344 344 344 344 344 343 343 343 343 341 339 339 339 334 335 338 336 334 333 334 333 333 335 334 333 334 335 334 333 337 338 337 338 339 337 335 333 331 330 330 329 326 320 318 320 324 329 331 332 333 334 334 333
320 320 319 319 319 318 317 318 316 315 317 320 317 316 318 316 317 319 319 329 339 342 346 347 345 349 352 353 351 343 341 342 344 344 344 345 344 343 343 344 345 344 344 344 343 341 340 339 340 341 341 343 343 342 341 341 340 337 337 338 336 334 334 334 332 335 337 336 334 335 336 335 335 336 337 336 337 338 336 334 333 331 331 330 330 327 322 321 323 327 331 332 332 333 334 335 334
315 317 317 317 317 317 317 318 315 314 317 320 319 317 318 317 315 317 325 338 345 346 347 347 346 348 350 348 344 341 342 343 344 344 343 344 345 344 344 345 345 345 345 343 342 340 337 337 339 341 343 343 343 343 342 342 341 339 339 337 335 334 334 332 332 336 338 337 336 336 337 337 336 335 336 337 337 338 336 334 333 331 331 331 330 328 324 322 326 330 331 331 332 333 335 336 335
314 318 319 317 317 316 319 320 315 313 315 317 316 316 318 318 314 315 330 344 348 349 348 346 345 345 345 342 340 340 341 342 344 343 342 343 344 344 344 344 344 345 345 344 343 341 340 341 342 343 343 343 343 343 342 342 342 340 339 337 336 335 334 333 332 336 338 338 338 337 338 337 336 334 335 337 337 338 336 334 334 332 331 331 331 329 325 323 328 331 331 332 332 333 335 335 335
316 319 318 317 316 316 318 317 315 313 315 315 315 316 316 315 314 316 328 339 352 359 351 347 348 346 342 339 339 339 339 342 343 342 342 342 343 343 343 343 343 344 344 344 343 342 342 342 343 343 343 343 343 343 343 342 341 340 339 337 337 336 335 334 333 337 339 338 338 338 338 337 335 334 334 336 337 337 335 335 334 332 331 331 331 330 326 323 327 331 331 331 332 333 335 335 335
316 318 317 317 316 316 316 315 315 314 314 315 315 316 316 316 314 315 324 336 354 362 354 352 351 348 343 339 338 338 339 340 340 341 341 341 342 342 341 341 342 342 343 342 343 343 343 343 344 343 342 342 341 342 342 341 340 340 339 338 338 337 337 335 334 338 339 339 338 338 337 336 335 335 335 336 337 337 335 334 334 333 332 331 331 331 328 324 325 330 331 331 332 334 335 335 334
315 316 317 318 315 315 316 315 315 315 314 315 316 316 316 315 314 317 322 329 341 348 351 354 351 348 343 339 338 337 338 338 338 340 340 340 340 340 340 340 340 340 341 342 343 344 344 344 343 343 342 341 340 341 341 340 339 340 339 339 339 338 338 336 336 337 339 339 338 337 337 336 336 336 336 336 336 336 334 334 334 333 332 331 331 331 330 328 326 327 330 331 332 334 335 335 334
314 315 316 316 314 314 316 315 314 316 315 315 316 316 315 315 315 318 318 321 330 341 348 349 347 345 342 339 338 337 337 337 337 338 339 339 339 339 339 339 338 339 340 342 342 343 344 343 343 342 341 340 340 341 341 340 340 340 339 339 339 339 338 338 337 337 339 339 338 338 337 337 337 336 336 335 335 335 334 333 333 333 332 331 331 331 330 330 329 328 330 331 332 333 335 335 334
315 316 315 315 314 314 315 314 315 317 316 315 317 316 316 316 316 316 317 319 319 334 348 347 344 343 341 339 338 338 339 338 337 337 338 338 338 339 338 338 338 338 339 341 341 342 343 342 342 341 339 339 340 340 341 340 340 340 340 340 340 339 338 338 337 336 338 339 337 337 337 337 336 335 335 335 335 334 333 333 333 333 333 332 331 331 331 330 330 329 330 330 332 334 336 336 335
314 315 315 314 313 314 313 314 315 316 316 316 317 314 316 316 315 316 317 317 319 335 349 346 343 341 340 339 338 339 338 338 337 337 338 338 338 338 338 339 339 338 338 339 340 340 341 341 341 340 338 338 339 339 340 340 341 341 340 340 340 338 337 338 338 337 338 338 337 337 336 336 335 333 334 334 334 334 332 332 332 333 333 332 331 331 331 331 330 329 329 330 332 335 334 335 336
313 314 315 313 313 314 313 313 312 314 315 315 315 314 318 317 315 316 313 326 340 347 348 343 342 341 340 340 340 338 338 337 336 336 337 337 338 338 338 339 339 338 338 338 338 339 340 340 340 339 338 337 338 339 340 340 341 341 340 340 339 339 338 337 337 338 339 338 337 337 336 335 333 332 333 333 333 333 333 332 332 331 332 332 332 332 331 331 331 332 332 332 333 333 332 334 336
315 313 314 313 313 314 312 313 312 314 314 314 315 314 319 315 314 315 315 336 351 348 345 344 343 342 341 340 340 338 338 337 336 336 336 337 337 337 338 338 339 338 337 338 337 337 338 339 339 339 338 337 337 339 340 340 340 340 340 340 339 338 337 337 336 337 339 339 337 337 336 335 333 332 334 334 332 332 333 333 332 330 330 331 331 331 331 330 331 332 333 332 332 332 332 334 336
315 313 314 313 313 312 312 313 313 314 314 315 314 315 319 313 314 314 319 340 352 347 347 345 343 344 342 341 340 338 337 337 336 336 336 337 337 337 338 338 338 338 337 337 336 337 337 338 338 338 337 336 336 338 339 339 339 339 338 339 338 337 337 337 336 336 339 339 337 337 337 335 333 333 334 334 333 332 332 332 330 328 328 330 330 331 331 331 330 331 331 331 331 331 331 333 335
313 312 312 313 312 311 311 313 314 315 313 316 315 316 317 312 315 314 320 341 352 348 348 345 344 345 342 342 340 338 337 335 335 336 336 336 337 337 337 338 338 339 338 336 336 337 337 337 337 338 338 337 336 337 338 338 337 336 337 337 338 337 337 337 337 337 339 339 338 337 337 335 334 333 334 334 332 331 330 329 328 328 328 329 329 329 330 331 330 330 330 331 330 330 331 332 334
312 313 313 315 314 312 314 314 315 316 314 316 315 314 316 314 317 315 325 344 351 348 349 346 346 345 343 342 340 339 336 334 335 335 336 336 337 338 338 339 339 339 338 337 336 337 337 337 336 337 338 337 336 336 336 337 335 335 336 336 337 337 337 337 337 337 339 339 338 337 336 336 335 334 335 334 331 330 330 330 330 329 330 330 330 329 329 330 330 330 330 330 330 331 331 331 333
313 313 311 314 315 314 315 313 314 316 314 317 316 313 316 318 316 314 330 348 351 349 350 347 346 345 344 342 339 340 337 334 335 335 336 336 337 337 337 338 338 339 338 337 337 337 338 338 337 337 337 337 336 336 335 335 335 335 335 336 336 336 336 337 337 338 339 338 338 336 336 336 336 334 334 333 332 331 331 331 331 331 332 332 332 331 331 330 331 331 331 331 331 331 331 331 333
314 312 313 314 312 314 315 314 315 313 313 316 315 313 314 317 315 310 324 346 352 353 350 347 348 345 344 343 340 340 336 335 335 335 336 336 337 337 337 338 337 338 337 337 337 337 338 338 337 337 336 336 336 336 335 334 334 335 335 335 335 335 335 337 338 338 339 338 337 336 335 336 336 334 334 333 332 333 333 332 332 332 333 332 332 333 332 332 331 331 332 331 331 332 332 332 333
318 310 318 321 311 313 317 315 316 313 312 315 313 314 314 316 316 308 320 345 352 353 352 347 348 346 344 344 341 340 337 334 334 335 336 336 337 337 337 338 337 337 337 337 337 337 338 337 337 337 336 336 336 337 335 334 333 334 335 335 334 334 336 337 338 338 339 338 337 336 336 337 336 335 334 334 333 334 334 333 333 333 333 333 333 333 333 333 332 332 333 332 332 332 332 332 332
326 316 318 321 312 312 315 312 315 314 313 314 312 315 315 316 316 309 320 345 351 350 352 349 348 347 345 344 342 341 339 336 335 335 335 336 336 337 337 338 338 338 338 338 338 338 337 337 337 336 335 335 337 337 336 334 333 333 335 335 335 336 337 338 338 338 338 338 337 336 336 337 337 335 333 334 333 333 334 334 333 333 334 333 333 334 334 333 332 332 333 333 333 332 332 332 331
325 321 318 319 314 312 313 313 313 312 313 314 313 314 315 316 317 312 315 334 348 350 349 349 348 346 345 343 342 342 340 339 337 335 335 336 336 337 338 338 338 338 338 338 338 338 337 337 337 337 336 335 336 337 337 335 333 334 336 336 337 337 338 339 338 338 338 338 337 336 336 336 336 336 334 333 333 333 334 334 334 334 334 333 333 335 334 334 333 333 333 333 333 332 333 332 331
320 319 316 317 315 313 312 314 314 313 313 314 314 314 314 314 315 315 313 321 337 346 346 346 347 346 345 343 343 343 342 340 338 335 335 337 337 337 338 339 339 338 339 339 338 338 337 337 337 337 336 336 337 337 337 335 333 334 336 336 338 338 338 338 338 338 338 338 337 336 335 335 335 336 334 333 333 334 334 335 334 334 334 334 335 335 335 334 334 333 333 332 332 332 332 332 331
319 317 315 316 314 313 313 313 314 314 312 314 314 313 314 314 313 316 318 322 333 340 344 346 345 345 343 342 343 344 344 342 338 336 336 337 338 338 339 340 339 339 339 338 338 338 337 337 337 337 337 336 337 337 336 335 333 335 336 337 338 338 338 338 338 338 337 337 337 336 336 335 335 335 334 333 333 333 334 335 334 334 334 335 335 335 335 335 334 333 333 332 331 331 331 331 331
315 313 313 314 311 312 313 313 315 314 312 313 313 312 313 314 316 318 318 327 337 342 346 347 345 344 342 342 344 344 344 343 337 337 338 339 339 339 340 340 339 339 339 338 338 337 338 337 337 338 337 337 337 337 336 335 335 335 336 337 337 338 337 336 335 336 337 337 337 336 336 336 336 335 334 333 333 333 333 335 335 334 334 334 334 334 335 335 334 333 332 331 331 331 331 330 330
311 311 312 312 311 312 312 313 315 314 313 313 313 313 313 313 318 320 320 323 329 335 343 347 345 345 344 343 344 344 344 343 341 340 339 339 341 340 340 340 339 338 338 338 337 337 338 338 338 338 337 337 337 337 336 336 335 336 336 336 337 337 336 334 334 334 336 337 336 336 337 336 336 335 334 333 333 333 333 334 335 335 335 335 334 335 335 335 334 333 332 331 331 331 331 330 330
314 312 312 313 313 313 315 318 318 315 314 315 313 311 314 320 319 320 323 324 325 327 333 340 343 344 343 343 344 345 345 345 345 343 340 340 341 341 340 340 339 339 337 337 337 337 338 338 338 338 338 338 337 337 336 336 336 336 336 336 336 336 334 335 335 334 335 336 336 336 336 336 335 334 334 333 333 333 333 334 335 335 335 335 334 335 335 334 333 333 332 331 331 331 330 330 330
317 315 313 314 314 314 317 322 321 317 316 318 318 318 325 325 320 322 325 326 330 329 329 333 336 338 339 342 345 346 346 346 346 344 341 341 341 340 340 339 338 338 337 336 337 337 338 338 338 338 338 338 337 336 336 336 336 336 336 336 336 335 333 334 335 335 336 336 336 336 336 335 335 334 334 334 333 332 332 333 334 335 334 334 335 335 335 334 333 333 332 331 331 331 330 330 330
319 319 314 313 314 316 318 320 324 325 322 322 324 326 325 321 322 326 327 329 332 332 332 333 333 332 335 342 344 344 345 344 344 345 343 342 342 340 340 339 338 337 337 337 337 337 338 338 337 338 338 337 337 336 335 336 336 336 336 335 334 332 332 333 334 334 335 336 336 336 336 335 335 334 333 333 333 332 332 333 334 335 334 334 335 335 334 333 334 333 332 331 331 331 331 330 330
317 318 317 313 314 317 317 320 328 329 322 317 319 320 315 319 328 328 326 331 334 333 334 334 333 332 334 339 339 339 342 344 344 343 343 342 341 340 339 339 338 337 337 337 337 337 337 338 338 338 337 337 338 337 335 335 335 335 335 334 332 330 331 333 333 334 334 335 336 336 335 335 335 334 333 333 333 332 332 332 333 335 335 335 335 334 333 333 334 333 332 331 331 331 331 331 330
315 320 322 315 314 318 317 320 323 321 318 315 320 320 314 321 332 327 325 333 335 335 335 333 333 332 333 335 335 337 342 345 345 342 338 338 338 339 339 339 338 338 337 337 337 336 336 337 337 337 336 336 337 337 336 335 335 335 335 334 333 332 333 333 333 333 334 335 335 335 335 335 335 333 332 333 333 332 333 332 333 334 334 335 335 334 333 333 334 334 333 332 331 331 331 331 330
317 324 326 317 316 317 319 322 319 318 319 320 326 327 319 323 332 328 327 334 336 336 336 333 332 331 331 332 332 333 336 339 341 338 334 332 333 334 333 333 333 334 335 335 333 332 334 336 335 335 335 335 336 337 336 336 335 335 335 334 334 334 334 334 334 333 334 335 335 335 335 335 335 333 333 334 333 333 333 333 333 333 334 335 335 335 333 333 334 334 333 332 331 331 331 331 330
320 325 320 316 316 316 320 321 321 324 320 316 324 326 318 321 329 331 331 336 338 338 337 334 331 330 330 330 330 330 330 331 333 332 331 329 329 330 328 328 328 329 331 331 330 331 333 335 336 335 335 335 336 336 336 336 335 335 335 334 333 334 334 334 334 334 334 334 334 335 335 334 334 334 334 334 333 334 333 333 332 333 334 335 335 334 334 334 334 334 333 332 332 331 331 331 330
319 319 315 318 321 322 326 323 321 325 319 316 323 324 323 327 330 333 336 338 338 337 336 333 330 329 329 329 328 328 327 327 328 328 329 329 329 328 328 328 328 328 329 329 329 330 333 335 336 335 335 335 336 336 336 335 334 334 334 334 334 333 333 332 333 333 334 334 335 335 334 334 334 334 335 334 334 334 333 332 333 333 334 335 335 334 333 334 334 334 333 333 332 332 331 331 331
315 315 314 318 325 329 336 334 326 321 319 325 327 322 329 335 333 334 337 338 337 335 334 332 330 329 328 328 327 326 326 326 326 326 327 328 328 327 328 327 327 327 328 329 330 332 333 334 335 336 336 335 336 337 335 332 332 333 334 334 334 333 333 332 332 333 334 334 335 334 334 333 333 334 334 334 334 333 332 332 333 334 334 335 335 334 333 334 334 334 334 333 332 332 332 331 331
314 318 316 315 323 326 330 332 326 319 321 328 326 323 330 335 333 335 335 334 332 333 333 332 331 330 328 327 326 325 324 324 324 324 324 326 327 327 327 326 326 325 327 329 330 331 331 331 333 335 336 335 336 336 333 330 329 332 333 334 334 333 333 332 333 333 334 334 334 334 333 333 333 333 334 334 333 333 332 332 333 334 335 335 335 334 334 334 333 333 333 333 333 333 332 332 332
315 320 319 317 319 318 320 324 324 323 322 319 320 327 335 335 333 334 334 332 330 330 331 330 329 328 327 326 325 323 322 321 321 321 321 322 325 326 327 326 326 325 326 327 327 328 328 330 332 334 334 334 334 331 329 327 328 329 332 334 334 333 333 333 333 333 334 334 334 333 333 333 333 333 334 334 333 333 333 332 332 334 335 335 335 334 334 334 333 333 333 333 333 333 333 332 332
315 318 319 319 320 318 316 320 321 321 320 316 316 326 336 335 332 332 332 331 330 328 328 328 327 326 326 324 323 322 320 319 319 319 319 320 322 324 325 326 325 325 326 325 325 326 328 329 331 332 332 333 333 330 327 327 328 328 330 333 333 333 333 333 333 333 333 334 334 334 333 333 333 333 334 334 333 333 333 332 333 334 335 335 334 335 334 333 333 333 333 333 333 333 332 332 331
314 317 318 318 324 325 320 322 322 318 319 321 322 325 331 334 332 330 330 328 327 327 326 326 325 324 324 323 321 320 318 318 317 317 317 318 319 320 322 324 325 326 326 326 325 325 326 328 328 330 330 331 332 330 328 328 328 329 330 331 333 333 333 333 333 333 333 333 334 334 334 333 333 334 334 334 333 333 333 333 334 334 335 335 334 334 333 333 333 333 333 333 333 332 332 332 331
313 314 315 315 322 328 325 324 325 325 325 325 327 328 327 329 330 327 328 327 326 326 325 325 324 323 323 322 320 319 317 316 315 315 315 315 317 317 318 320 322 325 326 326 327 326 325 327 327 329 329 329 329 328 328 329 329 329 330 331 333 333 333 333 333 333 333 332 333 333 334 334 334 334 334 333 333 333 333 334 334 335 335 335 335 334 333 333 333 332 333 333 332 332 331 331 332
317 313 314 315 316 322 323 318 319 327 326 319 323 333 330 328 330 328 327 328 327 326 324 324 323 321 321 320 318 317 316 315 313 313 313 313 314 314 315 316 317 320 322 323 324 325 326 326 326 328 328 328 328 328 328 329 330 330 329 330 332 332 333 333 333 333 333 332 331 332 333 334 334 334 334 333 333 333 333 334 335 335 334 334 334 333 333 333 333 332 332 332 332 331 331 331 332
320 314 314 315 311 318 323 321 323 327 322 316 324 335 331 328 330 329 328 329 328 326 324 322 321 320 319 317 316 315 314 313 312 311 312 312 312 312 313 314 314 316 317 318 319 321 324 326 326 327 327 327 327 328 328 328 328 328 329 329 330 331 333 333 333 334 333 332 331 331 332 333 332 332 333 334 333 333 333 334 334 334 334 333 333 333 332 332 332 331 331 332 332 331 332 332 331
316 314 315 314 315 320 319 319 323 320 318 322 326 330 329 330 330 329 329 329 327 325 323 321 319 318 317 315 314 313 312 311 311 310 310 310 310 311 311 312 312 313 314 315 316 317 320 323 325 326 327 326 327 328 328 328 328 328 328 329 329 330 331 333 333 333 332 332 331 331 331 332 331 330 330 332 333 333 334 333 333 333 333 332 332 331 331 331 331 331 331 332 332 332 332 332 331
313 317 320 321 325 325 318 318 321 317 321 328 328 327 328 329 329 328 328 328 327 325 323 320 318 315 314 313 312 311 311 310 309 309 309 309 309 310 310 310 311 311 312 313 314 315 316 319 321 323 325 326 327 328 328 328 329 329 328 328 329 329 330 332 331 331 331 331 331 332 332 331 331 331 330 330 331 333 333 333 333 333 332 332 331 331 331 331 331 331 331 332 332 332 332 332 331
314 324 326 322 322 320 317 318 318 319 328 332 330 329 327 328 329 328 326 326 325 323 320 318 315 313 312 311 310 310 309 309 308 308 308 308 309 308 309 309 309 310 310 311 312 312 313 315 317 319 322 324 326 327 328 328 328 328 327 327 327 327 330 332 329 329 332 332 331 332 332 331 331 331 331 330 329 330 332 333 333 332 332 332 331 331 331 331 331 331 331 332 333 332 332 331 331
322 332 329 322 320 319 320 318 316 323 331 329 329 331 329 328 327 322 320 320 319 319 317 315 313 311 310 310 309 308 308 308 307 307 307 307 308 307 308 308 308 308 309 309 310 310 311 312 313 315 318 321 324 326 327 328 328 328 328 328 328 328 330 331 330 330 331 331 331 331 331 331 330 330 331 330 329 327 330 332 332 331 331 331 331 331 331 331 331 332 332 332 332 332 331 331 331
Wind_Speed
1 2 1 1 0 2 1 3 1 2 2 1 3 1 4 6 4 4 7 6 3 2 1 3 4 4 4 5 8 7 4 2 3 4 3 1 10 22 19 19 30 28 26 25 23 22 21 22 21 21 20 19 19 20 22 23 23 22 22 22 23 23 23 23 23 23 23 24 25 26 25 25 26 27 27 27 26 25 24 23 22 21 21 20 20 19 18 18 17 15 16 16 17 18 20 21 22
3 2 1 1 1 2 1 3 2 3 3 2 3 4 4 3 2 6 9 7 3 1 2 4 7 8 8 7 6 5 5 4 1 3 1 8 17 18 17 24 31 28 27 25 24 23 21 22 21 21 19 19 19 20 22 22 22 22 21 21 21 21 22 23 23 23 23 24 24 25 24 25 26 26 27 27 27 26 24 23 22 21 20 20 19 19 18 18 17 16 16 16 17 17 18 18 19
4 3 1 1 1 2 1 3 2 1 3 3 5 4 3 2 6 9 10 11 8 4 3 3 6 5 5 6 5 4 1 2 4 4 4 13 14 14 21 27 29 28 27 25 24 23 23 22 22 21 19 20 19 20 20 20 21 20 21 21 20 20 22 23 23 23 23 24 24 24 24 24 25 25 27 27 27 25 24 23 22 21 19 19 19 19 18 17 17 15 15 15 16 16 16 17 18
3 3 1 1 1 3 3 2 2 4 3 4 4 5 3 4 8 9 9 10 7 2 1 3 4 2 5 7 3 3 2 1 3 4 4 8 11 18 26 27 28 26 26 25 24 24 23 23 23 21 20 20 19 19 19 19 19 19 20 20 20 20 22 22 22 22 21 23 24 24 25 24 24 24 26 27 26 24 23 22 21 20 19 18 18 18 19 18 16 16 15 14 15 15 15 17 17
3 3 1 2 2 1 2 1 2 4 4 4 2 6 5 7 8 8 9 9 5 1 0 3 2 3 4 5 2 2 2 3 4 4 5 9 16 24 26 27 26 24 25 24 23 24 23 24 24 22 20 19 19 19 19 19 18 18 19 19 20 21 21 22 21 21 21 23 24 24 24 22 23 23 25 26 25 24 23 21 20 19 18 17 17 18 18 17 16 15 14 14 14 15 15 15 14
3 3 1 2 2 1 2 1 1 2 5 5 3 7 7 7 6 6 10 11 4 2 1 3 3 1 4 3 3 3 2 4 5 4 8 15 22 25 26 26 23 22 24 23 23 24 24 24 24 22 20 19 19 19 19 19 18 19 18 19 20 20 21 21 21 21 20 23 24 23 21 21 22 22 25 24 23 22 21 20 19 18 16 16 17 17 17 16 15 15 15 15 15 15 15 13 12
3 2 2 2 1 1 3 2 3 3 5 6 5 7 10 9 5 5 9 9 3 3 3 2 6 6 3 1 2 8 10 6 7 8 15 22 25 24 25 24 22 22 23 23 23 24 24 24 23 22 21 20 19 18 19 18 18 18 18 19 20 19 19 20 21 21 20 23 24 22 20 21 22 22 23 22 22 21 20 19 18 17 16 15 16 17 17 16 16 16 16 16 16 15 13 12 11
4 2 1 3 1 2 3 1 3 4 4 5 5 8 11 11 6 6 8 4 2 2 4 3 4 7 2 3 3 10 16 15 16 19 23 25 25 24 24 24 24 24 23 23 24 24 24 24 23 22 22 20 19 18 19 19 18 18 18 18 18 18 18 19 20 21 21 22 24 22 20 21 21 21 23 22 21 21 20 18 17 17 16 14 15 17 17 17 17 17 17 16 15 13 12 11 12
3 2 1 2 1 1 1 2 4 4 5 6 7 10 11 11 7 5 8 6 2 1 3 2 2 5 2 8 6 6 14 22 27 26 26 25 24 24 24 25 26 26 24 24 24 24 23 23 23 23 22 21 19 18 19 19 18 19 19 18 17 16 18 20 20 20 20 22 23 22 21 20 20 22 22 21 20 19 19 18 17 16 15 13 14 16 17 17 18 17 16 15 14 12 12 11 12
3 2 2 1 2 0 3 2 3 3 5 6 8 11 11 10 7 6 6 5 3 3 3 2 5 7 5 7 5 4 11 24 31 26 23 24 24 26 27 27 28 28 26 25 25 24 23 22 22 22 22 21 20 19 20 20 19 20 20 18 16 16 19 20 20 19 19 21 22 22 21 20 20 21 21 19 19 18 17 17 16 15 15 14 13 15 17 18 18 18 16 14 13 12 12 11 11
2 2 2 3 3 1 3 3 4 4 6 5 8 12 12 9 6 6 4 3 1 4 4 3 7 6 8 5 3 9 16 23 28 25 23 25 26 28 28 26 25 25 25 24 24 23 22 21 20 21 22 22 21 20 20 20 20 20 20 18 16 17 19 19 19 18 19 21 21 21 21 21 20 20 20 19 19 18 17 16 15 15 15 15 14 14 16 19 19 18 16 15 14 13 11 10 10
2 1 4 3 2 3 3 2 5 6 7 5 7 9 6 6 5 5 3 2 2 3 2 2 6 5 7 4 3 11 16 17 23 26 25 25 24 24 24 24 22 22 24 24 23 22 21 21 20 19 20 22 21 21 20 20 19 20 20 18 17 18 19 18 18 18 18 19 20 21 21 21 20 19 19 18 19 18 17 16 15 15 15 15 14 14 16 20 20 18 17 16 15 13 11 10 11
3 2 5 2 3 3 2 2 4 5 7 4 6 5 2 4 4 4 4 4 3 3 1 3 9 6 5 4 6 8 10 13 21 26 26 25 24 23 23 23 22 22 24 24 23 21 21 22 21 19 19 20 20 21 20 19 18 19 20 19 19 19 18 18 18 18 19 19 20 21 21 21 20 19 18 18 18 17 16 16 16 16 15 15 15 14 16 20 21 19 18 17 15 13 11 12 12
2 2 5 1 1 2 2 2 4 3 5 6 4 4 0 1 2 4 7 6 5 2 2 5 9 9 6 5 6 4 6 13 21 25 26 27 26 26 25 24 23 22 23 23 23 21 21 22 21 20 20 20 21 21 20 19 18 19 22 20 19 19 18 18 18 20 20 20 21 21 21 20 20 19 18 17 17 16 16 15 16 16 16 15 15 15 16 20 21 20 19 18 16 14 13 14 15
4 1 4 1 1 0 2 3 3 3 4 6 4 5 3 1 1 4 6 5 3 2 3 4 3 5 6 8 7 6 10 18 22 25 27 27 28 27 25 24 23 21 23 25 25 24 24 24 23 23 23 23 24 23 22 21 20 21 23 21 19 19 18 18 19 21 21 21 21 21 19 18 19 19 17 17 16 15 15 15 16 16 16 15 15 15 16 19 21 21 20 18 17 16 15 15 15
3 2 4 1 1 1 3 3 2 1 5 6 4 5 3 4 4 4 2 2 4 5 5 2 2 4 7 8 11 15 19 23 24 26 26 23 24 25 24 24 24 23 25 27 28 28 28 28 28 27 27 26 26 26 25 24 22 22 23 21 19 19 18 17 20 22 20 21 21 20 17 17 17 17 16 15 14 14 14 15 15 16 15 15 15 15 17 19 21 22 20 18 17 16 16 15 14
2 3 2 0 2 3 3 4 2 1 5 7 6 4 3 4 5 3 4 7 8 7 8 5 5 4 6 9 20 26 27 28 28 27 22 19 19 22 22 22 24 25 25 27 29 31 31 31 30 29 28 27 26 25 24 23 22 21 22 21 19 19 18 17 20 21 19 19 20 19 18 17 17 17 16 15 13 12 13 15 15 16 15 15 15 15 17 19 21 22 20 18 17 15 14 14 14
2 2 2 2 3 4 4 6 4 2 3 6 7 3 5 3 4 2 4 9 9 10 9 8 10 9 11 18 26 30 29 31 31 27 20 17 16 17 19 21 24 26 27 28 30 32 31 31 30 29 28 26 26 24 22 22 20 20 21 20 19 19 17 18 20 19 18 18 19 19 19 18 17 17 16 15 14 13 13 14 14 15 15 15 15 15 16 19 22 22 19 17 16 14 12 14 15
3 3 2 4 4 5 5 5 5 3 4 7 8 5 4 3 1 2 4 3 5 10 7 8 13 11 13 17 23 26 28 29 28 25 21 18 17 16 16 18 22 26 29 30 31 32 31 30 29 27 27 25 24 23 21 21 21 21 21 20 19 18 17 18 19 18 17 18 19 20 19 17 16 16 16 15 15 13 13 14 14 15 15 15 15 15 15 18 22 21 19 17 15 12 11 13 15
3 3 2 5 5 5 6 7 8 7 5 7 7 3 4 4 1 2 5 5 5 7 5 8 11 10 12 12 17 22 23 23 21 21 20 19 18 19 20 20 23 28 32 33 31 29 26 26 25 24 25 26 24 22 21 21 22 22 21 19 19 18 17 17 18 18 17 17 18 19 18 17 15 14 14 14 14 14 14 14 14 15 16 15 15 15 15 17 21 21 19 17 14 11 10 12 14
2 4 5 5 4 5 8 8 8 7 3 4 7 3 3 5 3 3 6 6 1 5 7 9 14 14 14 13 13 17 17 16 16 17 18 17 18 21 23 25 28 28 28 26 24 23 21 21 21 20 22 23 24 22 21 22 22 22 22 20 19 18 17 17 18 18 17 17 17 17 17 16 15 14 14 15 14 14 14 15 15 16 17 16 16 16 16 17 19 21 20 17 13 10 9 11 11
2 4 5 5 3 5 8 5 4 6 3 3 6 4 0 2 3 2 6 6 4 6 7 11 18 18 17 17 14 13 12 12 13 14 15 16 18 19 20 23 25 23 19 19 18 18 18 18 18 19 20 21 22 21 21 21 22 22 22 21 20 19 17 17 18 18 17 16 16 16 16 15 14 14 15 15 15 15 14 15 15 16 17 17 17 16 17 17 18 20 20 16 12 9 8 9 8
2 4 3 6 5 6 7 2 4 5 3 4 3 3 0 3 3 2 2 5 6 6 8 12 16 17 18 17 14 13 12 12 13 16 18 18 19 21 21 23 25 22 18 16 15 14 14 16 17 18 20 22 22 20 20 21 20 21 22 21 20 19 18 18 18 18 17 16 16 16 16 15 15 15 15 15 15 15 14 14 15 15 16 17 17 16 17 17 17 19 18 15 12 9 8 7 6
4 5 5 7 6 8 9 6 6 4 4 8 3 0 1 1 3 3 3 3 3 4 7 13 13 14 15 14 13 14 14 14 15 20 24 24 25 26 25 25 25 21 17 14 13 13 12 15 17 18 19 21 22 21 20 21 20 20 21 20 19 19 19 19 19 18 18 17 17 17 16 16 16 15 15 15 15 15 14 13 14 15 15 16 17 16 16 17 17 17 17 15 12 8 6 6 5
4 6 6 5 5 8 10 8 7 6 5 7 3 2 5 6 2 1 5 2 4 6 10 14 13 12 12 13 12 12 12 13 15 19 21 21 22 21 20 22 20 17 16 16 13 12 13 15 17 17 19 21 22 21 20 21 20 20 21 19 19 19 19 19 20 19 19 19 19 18 17 17 17 16 15 15 14 14 13 11 12 15 16 16 16 16 16 17 18 17 16 14 12 8 6 6 6
6 7 6 5 7 9 8 6 7 7 6 3 3 5 8 5 2 2 4 3 6 9 12 13 14 13 11 11 11 10 11 11 13 17 18 18 17 14 16 19 18 17 18 18 14 14 15 16 18 18 20 21 22 21 20 22 21 21 21 20 19 19 19 19 19 20 19 20 20 19 18 18 17 17 16 14 14 13 12 11 11 14 16 17 16 17 17 17 18 17 15 14 11 8 6 7 8
5 6 5 7 10 9 5 5 7 6 4 5 7 7 8 4 0 3 2 6 8 10 11 11 13 13 12 10 9 9 10 12 15 17 14 13 15 16 17 19 20 20 20 21 19 16 17 18 19 20 21 22 23 22 21 22 21 21 21 20 20 19 20 19 19 19 20 22 22 20 20 19 18 17 16 14 13 12 12 11 11 13 16 17 17 17 17 17 17 16 15 13 9 7 7 7 9
3 2 4 7 7 6 4 5 6 3 2 7 9 6 5 3 2 5 3 7 9 11 11 9 11 10 11 11 9 7 8 12 16 15 14 15 19 21 20 22 24 23 23 25 23 19 18 20 21 22 23 23 24 23 22 22 21 21 21 21 20 20 21 20 20 20 22 23 23 22 21 20 19 17 16 14 14 14 13 12 12 14 16 16 16 17 17 16 16 16 15 12 9 8 7 7 9
3 1 3 7 5 4 5 3 4 5 2 6 7 2 6 2 6 3 4 8 8 11 11 9 9 8 9 9 7 6 7 11 13 14 18 22 24 24 26 28 29 28 28 27 24 22 20 21 23 24 24 24 25 25 23 22 21 21 21 21 21 21 21 21 21 21 23 24 23 22 22 21 20 17 16 15 15 16 15 14 14 15 14 14 15 15 16 16 16 15 14 12 9 8 8 8 10
3 1 1 5 6 5 6 2 3 5 3 5 6 2 6 7 9 1 4 9 9 9 10 8 8 7 7 8 7 6 7 9 12 16 20 22 23 25 26 27 28 28 28 26 24 23 22 22 23 25 26 26 26 25 23 22 21 21 21 21 21 21 22 22 22 22 23 24 24 23 23 22 19 18 17 17 17 17 16 15 14 14 13 13 13 13 14 15 15 14 14 12 10 9 8 10 11
2 1 1 2 1 4 8 2 5 4 2 3 6 2 7 10 9 3 6 8 11 10 9 8 7 7 7 7 7 7 7 10 14 17 19 21 22 23 23 22 21 21 21 24 25 25 25 24 24 26 27 28 27 25 23 23 23 23 23 22 22 22 22 23 23 24 24 25 25 24 23 22 20 19 19 19 19 18 16 16 15 14 12 12 13 12 13 14 14 14 13 12 12 11 10 12 13
2 1 2 3 1 5 8 3 4 5 2 0 6 2 6 10 8 2 7 9 11 10 10 9 9 9 9 7 7 7 6 9 14 15 17 20 21 21 21 20 20 19 18 21 23 24 25 25 24 26 28 29 28 25 24 25 25 25 24 23 23 23 23 23 24 25 26 26 25 24 23 22 21 20 20 20 20 18 17 16 15 13 12 13 14 13 14 14 15 15 13 12 13 14 13 14 13
4 1 2 3 1 3 5 4 2 5 2 2 3 3 4 5 5 2 5 9 10 10 10 11 10 10 9 8 7 6 6 7 10 14 17 20 21 21 21 22 23 24 22 21 22 23 23 23 24 26 29 30 29 28 28 28 28 27 25 25 24 23 23 24 25 26 27 27 26 25 24 22 22 22 21 21 21 19 17 15 15 14 13 14 16 16 15 14 16 16 15 14 13 14 16 16 14
3 2 0 3 1 2 2 4 5 2 3 2 2 3 6 7 5 4 2 7 9 9 11 11 10 8 8 7 6 7 7 8 9 13 19 21 21 22 22 24 26 25 23 21 21 23 23 24 25 26 28 29 29 30 30 29 28 27 26 25 24 24 23 24 25 26 27 27 27 27 25 24 24 23 23 22 21 20 17 15 15 15 15 16 18 17 15 15 16 16 16 16 14 15 17 17 16
3 0 1 2 3 2 2 3 4 3 2 4 2 4 10 11 8 5 2 3 8 10 9 9 8 8 7 7 7 7 8 8 8 13 21 23 23 24 23 24 26 25 23 21 21 21 22 24 25 25 26 28 30 31 29 27 26 25 24 23 23 23 24 23 24 24 25 25 26 27 27 26 25 24 24 24 23 21 18 17 17 17 17 18 19 18 16 16 17 17 16 16 16 15 16 18 17
7 4 4 1 2 3 4 4 6 2 1 6 7 7 9 11 10 7 6 4 4 7 6 6 6 6 6 6 7 8 8 8 8 15 22 23 24 25 24 24 25 25 23 21 21 21 22 23 24 24 26 29 30 29 27 26 24 22 21 22 23 23 24 24 23 24 24 24 25 27 27 26 26 25 25 25 23 22 20 19 19 19 18 18 19 19 19 18 18 18 17 17 17 16 16 17 17
5 2 1 1 2 4 5 4 6 3 4 7 9 9 9 9 6 7 7 6 3 2 7 7 6 5 4 5 6 8 8 5 7 13 19 21 21 22 23 23 24 23 22 23 22 22 23 24 25 27 28 30 31 28 27 27 25 23 22 23 24 23 23 23 23 23 24 24 25 25 26 26 25 25 26 25 24 23 22 21 20 20 20 20 19 19 19 18 17 18 18 18 17 17 17 17 17
2 1 1 3 2 4 6 4 7 2 5 4 4 7 9 5 5 9 7 7 7 4 3 6 7 7 6 6 7 6 3 1 4 9 13 16 17 19 22 22 23 22 21 22 23 24 24 25 26 29 30 31 31 28 28 28 25 24 24 25 26 24 21 21 21 22 22 22 23 24 25 25 24 24 25 25 24 24 24 23 22 22 22 21 20 19 18 17 17 19 20 19 17 18 19 18 19
3 2 2 3 2 4 6 4 6 1 4 3 2 6 8 2 7 7 8 8 7 7 3 2 2 4 4 5 5 4 3 2 4 6 10 14 16 19 21 21 23 22 21 23 24 25 25 25 27 30 32 31 29 28 27 26 24 22 23 25 26 23 20 21 20 19 19 19 21 24 25 25 24 23 24 25 25 24 24 25 24 23 23 22 20 19 19 18 19 20 21 20 19 18 17 19 20
3 3 3 3 2 1 3 4 6 4 1 2 6 5 3 5 6 6 9 7 8 10 8 8 6 4 5 3 3 5 5 5 6 6 7 11 15 17 18 18 20 20 20 22 24 26 26 28 31 33 33 30 28 27 26 25 23 21 22 23 24 21 19 20 19 17 18 19 21 24 25 24 23 24 25 25 25 25 24 24 25 24 23 21 20 20 20 20 20 21 21 21 21 20 16 19 19
1 4 5 3 3 3 4 4 5 5 5 3 7 4 5 6 6 7 8 8 11 12 12 13 11 9 8 5 2 3 5 4 7 6 5 6 9 12 12 13 15 17 20 23 25 27 29 31 33 33 31 29 29 29 26 25 24 23 20 18 19 19 18 18 18 17 19 21 22 24 24 22 22 24 26 26 26 26 24 24 25 25 23 21 21 21 21 21 21 21 22 22 23 23 20 21 18
2 4 8 8 6 5 4 3 4 5 5 4 6 5 2 4 6 6 6 9 11 11 13 14 12 12 11 9 7 3 2 1 2 3 3 3 3 3 5 10 15 17 20 24 26 28 29 30 32 32 30 29 31 30 28 27 27 26 24 21 20 21 20 20 21 22 23 23 23 24 23 22 22 24 26 28 27 26 25 25 26 26 25 23 22 22 22 22 22 22 22 22 23 24 22 22 20
1 5 9 8 6 5 3 2 4 3 1 2 4 6 2 4 6 8 7 7 9 11 14 14 12 12 11 9 9 7 5 4 4 6 6 7 7 5 1 7 12 16 23 25 23 23 23 22 23 23 22 24 29 30 28 28 27 26 26 25 24 24 25 25 26 25 25 23 22 22 21 22 23 24 26 27 27 26 25 25 26 26 27 24 22 23 23 23 23 22 22 22 22 23 23 24 23
3 7 7 7 6 7 5 5 4 2 3 3 4 4 4 3 4 7 7 4 8 12 14 14 12 12 12 11 11 10 9 7 6 6 7 8 8 9 10 9 12 9 9 12 7 4 5 7 10 13 14 17 23 27 28 28 27 27 26 25 25 26 27 26 27 26 25 23 22 22 21 22 23 25 27 26 26 27 25 25 26 27 27 25 23 23 23 23 23 23 22 21 21 22 22 22 24
7 7 6 7 7 7 5 6 4 0 2 2 6 3 5 3 4 6 7 5 9 11 11 12 12 12 12 12 12 12 11 10 10 9 9 9 9 12 14 16 24 24 13 9 6 2 4 9 13 16 17 19 23 25 27 29 29 28 27 26 26 27 26 24 25 25 24 23 23 22 22 23 25 26 27 26 26 26 24 24 26 27 27 25 23 22 22 23 24 23 23 22 21 22 21 19 21
6 5 5 4 4 4 4 5 4 3 4 3 7 1 5 2 5 5 5 4 7 7 8 10 11 12 12 12 12 12 11 11 11 10 10 10 10 13 15 15 17 17 12 7 9 10 13 18 20 19 19 21 24 25 27 29 30 29 28 28 27 26 23 20 22 23 23 22 23 23 23 23 25 26 25 23 23 23 22 22 24 27 26 24 23 22 21 23 24 23 22 22 21 21 21 20 18
4 6 5 5 5 5 4 3 4 4 1 5 7 1 5 1 3 3 2 4 5 5 6 8 10 13 13 12 12 12 11 10 10 11 11 13 13 14 15 16 15 10 6 8 15 17 19 21 20 21 22 22 25 27 29 30 29 28 28 29 28 25 22 20 20 21 22 22 23 23 21 21 23 26 25 21 20 21 22 22 24 26 25 23 23 21 21 22 23 22 21 21 22 21 21 21 19
5 5 4 4 3 4 4 4 4 4 2 6 4 3 6 3 2 2 3 6 6 5 6 8 11 12 11 11 12 12 11 11 11 11 12 12 12 13 15 16 14 7 2 6 14 17 19 20 18 21 24 25 26 25 24 25 24 25 27 28 27 24 21 21 20 20 22 22 22 20 20 22 24 26 25 22 21 22 23 23 24 25 25 23 22 22 21 21 21 22 21 21 21 21 21 21 21
5 4 5 5 1 2 0 2 0 3 2 3 3 2 5 2 1 2 5 7 6 6 7 8 10 10 10 11 11 11 11 11 11 10 10 10 9 11 12 13 12 7 4 2 6 6 7 12 14 16 19 20 20 15 13 16 17 19 22 25 26 23 21 21 21 21 22 22 22 21 21 23 25 25 25 24 24 24 25 25 24 25 24 22 22 22 21 20 21 21 21 21 20 20 21 21 21
5 5 5 5 3 2 2 2 1 2 2 3 4 0 2 1 0 2 5 6 5 7 8 8 10 10 9 10 10 11 12 11 10 9 10 9 10 12 12 11 11 10 9 7 6 5 4 7 8 7 9 13 16 16 16 15 15 18 21 23 25 23 22 23 23 23 23 22 22 23 24 24 25 26 27 26 25 25 25 24 24 24 23 22 22 22 21 21 21 20 19 21 21 21 21 20 20
4 5 6 6 5 4 3 3 3 3 2 1 2 1 2 2 1 4 6 6 7 8 8 9 9 8 6 7 10 11 12 11 10 10 10 11 12 15 16 15 13 10 11 12 10 8 8 10 10 8 8 12 17 20 22 21 18 21 25 24 25 23 23 24 25 24 24 24 23 23 25 26 26 27 28 26 24 24 23 21 23 24 23 22 21 21 22 21 20 20 19 20 21 21 21 20 18
1 2 6 3 5 6 3 3 5 5 3 2 3 2 1 2 3 5 5 7 8 8 9 9 9 9 7 7 9 9 9 9 10 9 10 13 16 17 18 19 19 15 14 15 15 12 10 12 11 11 11 10 13 18 22 25 25 28 28 26 25 24 23 24 24 23 24 24 23 24 25 27 28 28 27 26 24 23 23 22 23 25 23 22 21 21 22 22 20 20 19 19 20 21 21 19 18
1 2 4 3 4 8 5 2 1 3 4 1 1 3 2 1 3 4 4 7 8 7 8 9 9 10 10 9 9 9 8 8 9 9 9 12 16 18 18 19 22 22 21 21 21 18 13 11 12 12 11 9 11 18 23 26 25 26 25 24 24 24 24 25 25 24 24 23 21 22 24 25 28 29 27 26 25 24 25 24 24 24 22 22 22 21 21 21 20 20 19 19 20 21 20 19 18
4 3 5 2 3 5 4 2 2 4 4 1 2 3 3 1 1 1 4 7 7 7 8 8 9 10 10 9 10 11 11 10 10 11 11 14 17 19 19 20 23 24 24 25 24 23 19 13 10 12 13 11 12 16 20 21 17 14 15 18 21 23 24 26 26 24 24 22 19 19 21 21 21 23 26 27 26 25 25 25 23 22 22 22 21 21 21 21 21 20 19 19 19 20 19 18 17
5 4 3 4 3 1 1 3 2 2 3 0 3 2 1 1 1 0 2 4 6 6 7 8 9 9 8 9 10 11 11 10 11 12 12 14 17 19 20 21 24 26 26 25 24 24 23 19 14 12 12 11 11 13 16 17 14 13 15 18 22 25 26 28 27 23 20 19 19 19 21 20 17 17 19 23 26 27 26 25 24 23 22 22 21 21 21 21 21 21 19 19 19 19 19 18 16
3 3 3 2 3 4 2 2 3 4 3 2 2 1 1 1 1 1 2 3 6 7 6 8 8 8 8 8 9 9 9 9 10 11 11 13 16 18 19 19 22 24 24 24 25 25 23 22 20 17 13 10 9 10 12 15 16 17 17 18 22 25 28 29 26 21 19 20 20 21 23 24 21 19 19 20 24 28 27 25 25 24 24 23 21 21 21 21 21 20 19 19 20 19 18 18 17
2 4 3 2 2 2 2 1 2 4 4 4 3 1 2 2 1 3 4 4 7 8 7 7 7 8 8 7 8 9 9 9 10 10 11 12 15 17 18 19 22 23 24 25 26 25 24 24 22 21 18 14 12 9 10 13 15 15 15 16 20 23 27 28 20 18 23 23 19 19 21 22 21 22 23 23 24 27 27 26 25 25 24 23 22 22 22 21 21 20 19 19 20 19 18 18 17
4 3 3 2 2 3 4 1 1 3 4 4 5 3 2 1 2 6 7 7 8 9 8 7 7 7 7 7 8 9 9 9 10 10 10 12 14 16 18 21 23 23 23 25 26 25 25 25 23 21 20 17 13 11 10 12 12 13 13 14 16 19 25 25 17 17 22 20 16 16 18 20 20 22 25 25 26 27 26 26 25 24 24 23 22 22 21 21 21 20 20 20 20 19 19 18 17
Wind_Direction
86 67 80 161 46 123 48 67 83 325 88 289 267 225 256 231 243 287 285 294 317 301 63 51 29 56 97 119 134 125 74 101 172 150 208 236 143 159 168 164 156 153 152 156 158 154 156 157 157 157 155 152 151 150 149 146 142 139 137 136 135 133 130 129 129 127 124 121 120 118 116 117 115 112 111 109 108 107 106 105 106 106 105 104 104 105 104 105 102 97 94 90 86 86 90 93 95
110 116 115 153 30 109 219 74 103 319 56 311 268 185 252 284 262 249 252 256 235 167 112 90 77 74 87 107 118 89 44 19 82 123 75 118 131 151 165 164 158 152 152 155 156 153 155 158 158 158 156 153 154 153 151 149 144 141 140 138 135 132 129 129 127 125 123 120 120 118 118 119 117 115 114 112 110 108 107 106 106 106 106 106 107 109 108 107 105 99 93 91 89 88 89 90 92
116 151 148 139 49 59 78 48 99 77 94 250 269 225 257 304 240 240 240 238 231 175 150 72 76 76 71 71 46 52 90 15 77 93 101 129 132 147 159 160 156 152 151 153 153 153 156 159 160 158 158 155 155 154 151 149 145 142 142 139 135 131 130 128 124 122 121 120 120 119 119 120 120 119 118 114 112 110 108 107 106 106 105 105 107 110 110 109 108 102 95 93 94 94 94 96 96
131 163 255 144 51 23 67 49 145 122 145 221 267 256 233 231 245 262 255 246 250 180 144 41 49 356 67 80 52 57 113 78 99 113 114 137 144 149 153 155 152 149 148 151 154 154 156 161 163 160 160 157 155 153 150 149 145 144 143 139 135 132 130 126 122 122 120 121 120 121 121 121 122 121 120 116 113 112 111 110 109 108 108 108 108 109 110 111 111 106 102 98 99 101 103 105 101
147 168 270 90 93 7 105 90 120 125 202 194 236 261 228 220 249 285 282 276 286 307 139 97 72 318 73 86 101 90 100 120 119 110 93 122 144 147 149 150 148 145 147 151 154 155 157 162 164 162 159 155 153 152 151 150 148 145 141 138 136 133 130 126 125 124 122 123 121 122 123 124 125 123 122 117 116 117 118 116 113 111 110 113 113 112 111 113 112 108 108 107 109 111 111 108 99
151 140 43 47 100 187 116 134 172 205 231 178 212 267 255 245 254 290 297 300 299 139 52 99 122 102 83 44 77 61 348 144 118 100 111 130 144 146 146 146 142 142 149 153 156 157 158 162 164 161 157 154 154 154 154 154 152 146 141 139 136 134 132 130 129 127 125 125 123 123 125 128 128 125 123 119 120 124 122 118 114 111 110 112 114 115 116 117 116 115 118 120 120 116 111 103 91
156 130 24 43 25 21 107 174 204 238 245 186 209 262 269 274 277 314 311 309 334 85 53 107 128 107 90 4 90 20 18 110 118 117 128 135 142 142 142 142 138 141 150 156 160 159 159 164 164 161 158 156 157 157 156 156 154 148 144 141 138 138 137 135 132 129 128 128 128 127 129 133 130 127 126 122 123 125 120 116 115 114 113 111 113 117 121 125 127 127 129 127 122 115 108 97 82
156 148 30 101 45 7 107 219 230 219 249 220 236 261 270 280 289 313 301 290 321 23 81 156 110 88 12 19 74 19 39 88 109 118 126 130 136 138 140 140 140 146 154 160 162 160 161 165 164 162 160 159 161 160 160 158 156 151 147 144 143 146 144 140 136 133 132 133 134 131 132 137 133 129 128 124 123 121 118 118 118 118 116 110 110 118 124 130 134 133 133 129 122 115 106 93 80
117 88 90 114 137 11 52 280 259 234 260 264 262 263 268 277 284 286 281 291 314 66 102 233 37 95 80 50 69 24 54 95 108 113 120 126 134 140 145 147 149 153 158 162 161 160 163 165 164 164 162 162 165 165 164 160 159 157 151 149 151 152 149 144 140 138 136 137 139 135 135 138 136 131 127 124 121 121 122 123 122 119 115 108 108 117 126 133 137 138 137 130 122 114 104 92 83
46 42 144 113 110 46 306 270 256 254 252 259 261 261 265 271 278 259 250 270 263 129 122 48 61 99 98 64 63 52 89 108 110 112 122 133 144 152 156 157 158 159 160 160 159 161 162 163 163 165 167 167 169 169 167 164 164 162 157 155 158 157 151 147 144 143 139 140 144 141 140 141 139 131 126 125 125 127 126 125 122 118 113 109 108 114 127 136 141 142 139 130 120 111 101 90 88
31 335 112 81 82 187 253 254 266 266 262 278 273 262 256 252 263 260 218 216 273 119 158 72 71 100 89 71 70 98 109 112 115 122 135 145 156 162 162 159 159 159 156 154 156 159 159 161 163 167 171 171 172 172 171 171 168 164 162 161 162 160 154 151 149 146 144 144 146 147 145 144 140 132 129 131 133 132 128 126 121 117 112 109 108 113 127 138 145 144 137 127 118 107 96 89 91
108 292 74 96 142 197 211 243 269 276 283 285 269 267 240 210 211 233 167 95 9 89 195 129 130 134 79 75 113 104 102 112 126 134 144 152 160 163 160 156 155 155 152 153 156 157 159 162 165 168 172 174 176 177 177 176 171 168 168 167 166 163 158 157 155 151 148 146 148 150 149 146 141 135 135 137 136 135 131 127 121 118 113 111 111 114 127 140 147 144 134 125 114 101 90 87 91
137 167 90 126 191 173 196 235 274 296 297 265 243 270 168 177 203 194 127 53 34 111 266 139 140 114 80 111 118 103 100 127 137 140 149 154 160 161 160 157 153 155 154 154 154 156 161 163 166 168 171 175 179 182 181 178 174 174 173 172 169 167 164 162 160 156 151 149 149 150 151 149 144 141 141 141 139 137 134 127 123 120 115 115 115 116 127 140 146 142 132 123 111 95 87 91 97
164 166 116 177 212 144 208 244 281 284 282 265 256 293 271 177 225 148 109 50 19 112 107 109 121 96 103 135 119 123 134 145 143 145 154 154 158 158 157 157 153 153 153 154 154 157 162 165 168 169 173 178 181 183 182 181 181 180 178 176 173 170 168 165 163 158 154 151 151 152 154 153 149 146 144 143 141 140 136 129 125 122 119 119 118 119 129 140 144 139 130 121 109 96 88 93 101
183 147 101 135 304 223 225 220 240 209 260 274 283 317 347 31 66 99 102 100 30 11 77 89 104 96 143 162 149 159 154 149 147 151 157 155 154 152 153 154 152 155 157 158 158 161 164 167 171 174 179 181 182 182 182 184 186 184 181 177 174 172 171 169 165 159 157 156 155 155 154 153 151 149 147 144 143 142 135 131 128 124 122 122 122 121 130 140 141 136 130 122 112 100 90 93 103
174 96 79 120 249 229 221 215 220 216 266 270 286 325 4 344 20 53 337 128 92 30 47 21 347 111 155 165 145 143 147 147 149 157 156 150 147 145 149 151 153 159 163 164 165 168 170 172 176 179 183 183 183 182 182 185 186 184 180 178 176 174 174 171 165 161 161 160 158 155 154 154 152 151 151 148 147 145 137 133 132 128 126 126 126 124 132 142 140 136 131 125 118 105 94 94 104
103 88 80 231 215 206 209 209 180 169 263 278 312 0 96 332 2 57 350 57 83 60 47 22 17 78 125 128 132 138 144 147 153 160 153 145 142 140 146 153 156 161 168 173 174 175 177 177 178 181 183 183 184 183 184 184 182 180 179 179 178 176 176 172 167 165 165 163 160 160 160 159 155 154 155 153 153 151 140 136 134 131 130 129 130 128 134 144 142 138 135 129 122 109 96 93 103
109 115 152 209 203 209 198 200 209 184 262 287 318 0 101 27 356 71 42 53 74 71 56 54 52 58 89 111 128 137 143 148 156 159 152 150 146 142 151 161 164 167 174 181 183 182 181 181 180 182 182 183 184 183 183 181 180 179 179 178 177 178 176 173 171 168 167 164 165 167 166 163 159 158 159 159 159 156 145 139 138 137 134 132 134 132 137 146 146 143 140 135 125 112 97 91 104
165 137 165 220 202 218 216 213 246 246 262 289 302 314 42 42 30 84 83 74 78 79 67 76 78 83 98 113 129 137 146 153 161 159 157 161 155 153 161 171 174 176 180 185 189 186 183 182 181 182 180 181 182 182 182 180 180 182 181 179 177 178 176 174 173 170 169 167 169 172 170 165 162 160 162 164 162 158 149 143 143 143 139 137 137 137 139 148 151 148 144 140 127 113 99 89 104
180 145 200 237 207 240 261 247 261 266 283 303 285 293 12 334 302 84 120 119 98 113 125 105 111 129 126 129 137 142 150 155 163 162 164 167 162 165 170 180 185 186 187 187 189 187 184 181 180 182 180 181 183 183 183 179 181 184 183 181 180 180 178 176 174 172 172 171 172 174 173 168 164 162 163 165 165 161 153 149 151 150 147 144 142 143 141 148 155 154 150 145 132 115 101 91 100
176 173 207 239 192 237 262 245 264 283 298 289 280 320 22 314 337 91 128 119 134 183 182 153 148 150 138 143 150 150 153 153 163 169 172 170 170 175 178 185 190 192 191 187 187 185 183 181 179 182 180 180 182 184 181 179 183 185 183 182 182 181 181 179 176 176 176 175 174 176 176 171 167 165 165 168 169 167 161 159 160 157 154 152 148 148 146 147 153 156 157 151 138 120 104 96 99
184 224 219 235 192 236 258 239 268 279 255 253 295 319 144 319 352 115 129 141 223 213 193 170 155 155 150 152 157 155 152 154 166 178 182 177 179 184 187 191 194 197 192 186 186 185 183 180 180 180 178 180 182 184 180 180 185 185 183 182 181 181 184 181 179 180 178 178 179 181 181 176 173 170 171 173 172 174 171 167 165 162 160 158 153 152 152 150 152 156 159 157 145 128 111 104 103
210 268 242 231 213 233 263 255 246 254 243 235 248 278 345 33 319 268 134 173 218 216 177 157 154 155 151 150 156 157 157 164 172 182 185 184 187 189 191 193 196 198 191 184 183 182 180 178 181 181 180 182 184 186 182 181 186 185 184 183 181 183 185 183 183 186 182 181 185 189 189 186 183 179 178 177 175 178 179 173 170 169 167 165 160 156 156 154 156 158 161 161 153 135 115 117 118
196 263 270 251 227 229 256 252 247 246 233 247 237 343 335 334 287 314 305 239 209 201 145 132 141 143 143 150 159 161 165 171 178 185 187 189 192 191 192 194 196 195 184 175 176 179 178 178 185 186 184 185 187 189 185 183 186 187 187 186 186 187 188 186 187 192 187 185 190 194 195 194 192 188 185 181 179 182 182 176 174 176 175 173 168 163 159 156 157 161 165 166 160 144 122 131 141
203 235 260 266 250 241 255 256 259 259 245 260 279 268 232 210 193 285 272 276 114 136 119 119 132 137 147 159 163 164 167 172 178 186 194 197 196 193 193 196 198 195 184 175 171 175 181 181 186 190 189 189 191 192 188 185 187 189 188 187 187 190 193 191 192 196 192 188 192 196 198 199 197 195 190 185 185 186 184 179 175 179 181 181 177 172 165 159 158 160 165 168 164 158 154 165 174
212 218 248 265 266 257 256 255 246 240 235 225 220 258 263 239 160 255 264 128 123 123 119 129 138 145 158 163 165 167 169 174 180 186 197 201 201 201 197 198 200 197 191 184 179 180 185 185 186 193 194 193 194 195 191 189 190 191 190 189 190 193 194 195 198 200 196 192 194 197 199 201 202 200 194 189 189 188 188 188 183 184 184 184 183 180 173 165 162 163 167 170 168 168 174 184 194
206 206 247 246 257 263 244 242 235 224 233 193 185 229 265 297 179 254 274 134 140 122 127 145 145 154 162 163 169 170 174 179 181 182 189 199 204 207 201 198 200 200 196 192 190 187 188 187 187 193 196 196 198 198 197 195 193 193 193 193 194 196 194 196 200 200 198 196 196 198 200 203 206 204 198 193 190 188 189 190 187 185 184 183 182 182 180 173 169 171 176 178 180 179 179 189 200
239 230 294 267 267 280 238 233 232 195 235 195 171 221 272 340 221 230 198 154 148 133 144 156 152 161 163 164 167 170 184 178 177 180 182 196 202 202 200 198 198 198 199 198 195 191 191 190 187 193 197 198 200 201 201 200 198 198 198 197 196 197 195 196 199 198 197 196 198 200 201 204 207 205 201 194 186 183 181 177 176 176 177 177 177 179 182 179 176 178 183 186 192 191 188 195 202
295 337 316 292 340 329 249 234 219 169 197 190 148 302 301 255 234 242 145 158 150 141 155 163 161 165 162 165 165 172 190 177 178 190 193 197 199 199 200 201 198 197 200 199 196 194 195 192 189 192 198 201 202 203 204 202 202 201 200 199 198 198 198 200 202 200 198 197 198 201 202 204 206 204 199 191 181 178 176 171 171 171 170 171 171 174 178 179 178 179 185 193 197 192 196 203 203
305 40 137 294 1 334 265 245 185 162 194 184 132 303 285 260 255 255 135 161 145 148 166 170 165 163 166 168 169 176 185 183 190 199 201 201 201 202 205 205 202 199 198 197 197 197 196 195 191 193 198 203 205 205 205 203 203 203 202 201 201 202 202 204 206 204 201 199 200 202 203 205 204 201 197 190 182 181 181 178 176 174 174 174 172 176 182 184 182 182 188 195 194 190 201 209 204
320 327 79 335 3 280 290 285 161 150 245 168 114 245 265 277 276 159 168 174 151 164 178 174 168 166 175 174 176 183 187 196 201 201 203 205 204 206 211 214 210 205 198 196 199 198 196 196 194 195 199 203 205 205 204 203 204 206 206 204 203 205 206 208 209 207 204 202 201 202 205 205 202 200 198 193 190 188 186 186 183 181 183 183 183 185 188 190 187 186 189 192 191 192 202 203 200
25 352 309 335 213 264 309 322 158 145 276 34 113 214 269 284 291 128 168 180 162 175 183 178 178 174 177 178 182 188 190 201 208 208 207 208 209 209 211 215 213 210 204 199 198 194 194 195 194 196 200 203 205 205 206 206 207 208 208 206 207 208 209 211 212 210 207 204 203 204 206 205 201 200 200 198 198 196 191 190 189 189 194 194 192 189 188 190 188 187 189 193 191 188 193 193 190
8 95 235 294 301 298 322 335 298 155 160 327 135 201 275 277 291 20 144 173 173 181 188 187 182 179 180 180 184 187 188 197 210 215 210 209 211 209 209 212 210 209 208 206 199 192 190 190 192 197 202 203 204 206 208 209 208 208 209 208 209 211 213 214 213 212 209 206 205 206 207 205 201 201 202 203 205 203 198 199 198 198 203 199 194 190 190 188 187 188 187 192 193 185 184 184 179
321 13 272 264 282 310 309 327 319 94 120 270 190 196 248 251 269 335 93 173 188 189 194 195 185 180 179 175 184 189 192 197 206 211 208 207 208 206 207 210 209 208 210 208 201 195 190 189 193 198 203 203 204 208 210 209 208 208 208 209 210 212 216 218 215 213 210 208 207 209 210 207 202 202 205 207 209 208 205 207 204 201 199 195 191 191 191 186 185 188 184 184 192 186 182 182 176
206 247 77 306 323 317 288 289 289 358 10 252 233 235 252 263 277 304 353 167 199 204 195 195 187 178 178 176 186 195 199 204 207 207 205 204 202 202 204 207 207 207 208 206 201 198 193 192 194 198 202 203 206 210 208 206 207 206 207 208 210 213 216 219 217 214 213 212 211 211 212 209 205 204 206 208 210 209 208 207 202 198 196 194 194 194 192 187 183 187 186 183 186 185 184 183 174
167 171 137 154 315 290 262 250 254 264 260 248 234 233 245 259 274 298 338 9 216 204 167 179 197 181 183 183 187 198 203 207 208 206 204 202 199 198 199 202 202 203 203 202 200 198 195 193 194 198 204 206 208 207 203 203 203 201 203 206 209 212 216 221 218 215 214 214 215 215 214 212 208 206 207 208 209 210 209 207 202 199 199 200 200 199 195 191 186 185 185 182 182 179 176 177 170
146 138 113 218 261 285 275 264 277 233 184 245 230 223 243 252 290 332 342 7 353 190 145 171 195 183 194 196 200 207 208 203 192 200 203 200 197 195 196 197 198 198 198 198 196 196 195 193 194 200 207 209 207 202 198 200 198 195 197 203 207 209 215 220 218 215 212 212 216 216 215 213 210 207 207 207 208 209 208 207 204 202 202 203 205 203 197 194 191 186 182 179 182 177 166 168 167
120 157 267 295 246 261 269 260 286 232 162 255 223 204 246 255 24 5 356 22 4 330 185 192 200 192 194 196 206 209 212 191 168 189 198 194 192 192 194 196 195 193 192 193 193 193 193 192 196 204 209 210 207 201 198 201 199 196 199 204 207 205 210 216 216 217 216 213 214 213 213 213 211 208 207 207 207 208 208 207 205 204 202 201 204 202 197 196 193 188 181 176 181 180 170 168 168
108 122 189 276 254 274 289 275 290 284 149 259 165 173 244 305 58 31 18 33 10 350 343 303 263 228 230 215 200 176 180 217 197 193 192 189 189 189 191 194 196 194 190 189 191 191 189 190 199 208 211 209 206 203 201 200 200 199 204 212 213 209 211 214 211 214 217 215 213 212 213 212 211 209 207 207 207 208 210 208 206 205 200 197 200 200 197 197 195 190 187 182 178 176 173 171 170
110 138 186 243 238 280 291 280 302 334 61 180 140 150 291 2 44 36 23 27 24 18 24 25 17 353 323 283 173 160 181 203 213 209 194 190 188 186 189 191 194 193 187 187 188 187 186 191 201 209 211 206 204 205 202 199 198 199 204 213 218 218 222 222 213 208 212 213 211 212 213 211 211 210 206 206 209 211 212 210 208 207 202 197 200 201 198 198 197 193 192 189 180 172 170 174 174
235 197 201 209 197 209 235 273 315 341 359 66 102 69 1 7 23 23 7 13 27 21 25 29 22 11 2 358 5 183 182 204 225 225 209 197 186 181 184 187 189 192 192 190 188 187 189 195 203 208 208 205 206 206 201 197 198 198 197 198 202 206 215 219 213 210 213 214 211 211 211 208 209 210 207 208 212 213 213 212 209 208 204 201 201 203 200 198 198 196 195 194 187 180 174 176 178
279 234 218 211 203 218 240 306 4 28 3 11 85 83 355 332 12 26 1 10 22 19 26 28 19 16 18 8 351 344 73 29 297 324 350 7 38 127 175 186 189 194 196 194 191 191 193 198 205 208 205 204 207 208 203 201 202 199 194 189 186 189 197 204 205 210 215 214 212 211 208 204 206 210 210 211 213 213 213 212 210 209 206 202 202 203 201 199 199 200 201 199 195 190 181 178 182
256 237 218 208 189 189 183 78 55 72 307 331 74 117 170 318 360 10 356 8 19 25 33 28 24 24 23 20 10 15 32 34 44 41 38 34 32 35 302 214 206 208 203 195 192 194 197 201 207 209 207 206 208 209 207 206 205 201 199 199 197 195 199 203 204 210 216 216 214 210 205 203 206 209 210 211 212 211 211 210 210 208 206 202 201 202 202 201 202 203 205 206 203 196 186 181 186
227 240 199 176 169 175 160 105 96 178 222 326 10 102 116 332 332 348 345 12 27 32 36 28 29 28 25 28 27 29 28 29 53 56 49 30 12 19 18 6 358 330 221 182 155 163 210 215 212 217 218 214 214 215 215 213 209 205 204 203 204 205 206 207 206 210 215 216 214 209 206 205 208 211 212 212 210 208 208 209 208 205 204 202 200 203 203 203 204 205 207 210 209 202 195 191 191
240 232 172 166 170 162 142 108 106 105 92 319 315 49 89 300 293 342 349 25 31 28 33 28 27 27 27 29 29 33 32 32 41 46 49 28 7 24 33 27 18 15 33 82 92 111 232 228 216 219 222 219 219 221 222 221 216 210 207 206 207 210 210 208 207 208 211 212 212 209 208 209 210 212 214 214 210 208 208 207 205 203 201 200 200 203 205 205 205 206 208 210 209 207 206 205 202
236 189 122 93 89 95 96 105 115 53 66 222 270 32 104 268 311 351 350 23 22 15 29 28 25 27 30 29 29 32 30 32 37 39 49 41 28 37 41 41 34 30 52 116 177 198 221 227 219 216 221 220 221 225 227 227 222 214 209 209 210 211 211 209 207 205 207 209 210 209 208 210 211 212 213 214 213 214 214 210 204 201 201 201 202 204 205 207 207 207 209 209 209 211 211 213 215
157 129 96 51 42 47 50 66 96 84 35 250 259 49 101 146 313 335 354 30 10 5 30 27 28 32 34 33 33 33 30 29 30 31 38 37 34 37 37 44 51 48 72 154 186 202 218 224 219 215 218 220 221 227 230 229 225 219 214 213 213 212 212 211 207 204 206 208 208 206 203 204 211 213 212 211 213 218 221 216 207 203 202 203 206 207 206 208 208 207 208 208 208 212 214 216 219
108 118 111 84 15 20 29 0 50 103 241 259 249 83 85 109 253 312 49 50 24 23 38 33 36 38 37 39 37 34 31 27 26 26 27 27 29 29 29 41 53 55 73 173 195 208 217 222 225 222 221 221 222 228 236 238 233 225 220 218 216 213 213 214 212 209 210 211 210 206 203 206 213 214 210 208 209 210 214 216 210 204 204 206 209 210 208 208 210 209 209 209 209 212 216 218 219
101 108 97 103 22 21 52 299 80 151 232 236 208 88 68 75 270 12 57 56 37 44 54 48 48 45 42 44 42 38 33 27 25 22 19 19 18 19 21 31 36 24 354 276 231 239 236 232 239 235 225 223 222 224 243 261 267 252 234 226 221 216 214 217 218 216 215 215 213 209 208 213 215 213 208 207 206 203 205 210 211 207 204 207 209 209 208 208 209 210 210 211 212 213 215 218 220
139 137 120 130 124 111 208 263 158 198 229 209 221 169 85 123 190 78 80 69 53 60 60 54 53 49 47 46 45 42 36 29 24 18 16 14 9 10 7 6 10 360 353 339 295 304 301 275 285 267 230 223 224 223 227 243 274 274 254 238 230 222 217 219 220 219 217 216 216 214 215 220 221 218 212 209 206 203 202 203 209 210 206 205 208 208 208 207 206 208 210 212 214 217 218 218 221
163 155 125 138 150 141 191 209 163 189 202 273 291 66 119 192 127 77 92 81 60 57 51 49 49 46 52 52 45 42 36 29 24 17 14 8 4 7 4 1 358 338 334 339 326 317 303 299 314 306 261 234 229 228 225 224 239 252 249 242 236 228 224 225 225 224 221 218 217 217 219 223 225 223 218 213 208 204 202 200 206 210 206 203 206 208 207 204 205 208 210 214 216 218 219 218 219
231 139 101 136 181 144 135 177 171 171 138 15 353 75 87 172 86 47 74 83 64 55 46 45 43 32 34 41 38 38 34 28 23 17 13 7 3 4 4 4 3 353 344 346 344 339 318 303 310 306 289 266 247 243 236 231 232 233 233 236 237 230 227 231 231 230 227 223 221 222 223 224 225 223 218 213 207 203 203 202 206 209 207 207 207 206 205 204 207 210 211 215 217 217 216 215 217
200 117 139 197 170 123 116 176 147 100 115 23 349 120 98 120 94 39 74 90 74 61 51 47 42 33 30 26 23 22 23 22 18 15 12 8 5 2 1 1 3 5 7 7 5 1 346 317 299 291 288 280 263 256 248 242 240 235 230 233 237 231 227 231 234 234 234 231 229 229 228 228 226 222 216 209 204 203 203 202 206 209 208 207 205 203 203 204 207 209 210 213 214 213 211 211 216
122 169 188 163 80 91 107 131 20 50 118 266 341 121 131 154 188 45 83 92 83 67 56 51 43 38 32 24 17 11 9 10 9 11 10 8 7 3 359 357 359 3 8 12 14 13 9 354 312 283 277 275 272 269 260 252 253 259 249 241 243 240 233 232 234 235 236 235 234 234 234 235 233 227 219 210 204 201 200 200 202 203 202 200 201 202 203 205 207 207 208 211 211 208 207 209 214
124 165 165 112 115 147 95 123 130 101 132 89 5 45 133 163 212 125 78 95 100 82 66 59 46 38 31 21 15 7 4 8 8 8 7 5 5 3 357 354 356 0 3 7 12 16 17 13 356 325 300 292 295 289 272 256 253 267 265 248 244 248 244 238 235 234 235 232 229 232 234 236 241 243 231 216 207 200 197 199 198 198 199 198 200 202 201 203 203 204 207 209 208 206 207 210 213
68 76 29 51 136 158 160 144 146 149 154 132 69 8 274 227 238 142 126 125 116 102 80 68 52 40 33 19 11 5 2 9 10 6 4 2 2 2 357 351 354 359 1 4 10 14 14 12 9 2 351 340 326 302 277 264 258 262 266 252 243 246 248 246 238 232 233 231 227 230 232 230 231 239 238 227 215 204 197 197 197 198 200 200 199 198 196 198 200 203 208 208 206 206 208 211 211
88 67 38 14 56 112 142 101 100 130 144 143 129 179 246 252 249 109 94 76 86 86 75 66 53 40 31 16 8 5 2 8 9 6 2 358 358 0 357 354 357 0 2 6 9 10 9 9 9 7 6 5 356 334 304 290 279 272 272 263 252 247 247 247 238 228 235 236 234 235 233 227 223 226 229 227 221 210 200 196 196 198 200 199 197 195 194 197 200 203 207 207 205 204 207 210 210
132 116 127 142 126 120 119 140 304 84 120 154 145 165 219 356 70 89 75 57 62 69 71 67 52 38 27 13 6 3 2 7 8 6 2 356 356 357 356 357 359 359 359 3 7 7 6 4 3 3 5 3 356 343 324 312 301 283 272 266 264 256 249 246 233 227 235 235 237 240 233 227 222 217 217 217 219 216 206 197 195 197 199 198 196 195 196 199 202 205 206 206 206 205 206 208 210